Regional Weather Roundup
Issued by NWS Cleveland, OH

Home | Current Version | Previous Version | Graphics & Text | Print | Product List | Glossary On
Versions: 1 2 3 4 5 6 7 8 9 10 11 12 13 14 15 16 17 18 19 20 21 22 23 24 25 26 27 28 29 30 31 32 33 34 35 36 37 38 39 40 41 42 43 44 45 46 47 48 49 50
000
ASUS41 KCLE 010400
RWRCLE
OHIO REGIONAL WEATHER ROUNDUP
NATIONAL WEATHER SERVICE WILMINGTON, OH
1200 AM EDT FRI AUG 01 2014

NOTE: "FAIR" INDICATES FEW OR NO CLOUDS BELOW 12,000 FEET WITH NO
SIGNIFICANT WEATHER AND/OR OBSTRUCTIONS TO VISIBILITY.

OHZ001>008-015>018-024>027-034-035-043-044-010500-
   NORTHWEST OHIO

CITY           SKY/WX    TMP DP  RH WIND       PRES   REMARKS
DEFIANCE       PTCLDY    66  62  87 CALM      30.08S
FINDLAY        CLOUDY    67  61  81 S5        30.08S
TOLEDO EXPRESS PTCLDY    62  59  90 CALM      30.07R
TOLEDO METCALF CLEAR     68  59  73 CALM      30.08R
LIMA           CLEAR     67  61  81 CALM      30.09F
$$

OHZ009>014-019>023-028>033-038-089-010500-
   NORTHEAST OHIO

CITY           SKY/WX    TMP DP  RH WIND       PRES   REMARKS
CLE-HOPKINS    PTCLDY    68  57  68 S8        30.10S
CLE-LAKEFRONT  CLOUDY    72  58  61 S8        30.07R
CUY CO. ARPT   NOT AVBL
LORAIN-ELYRIA  CLEAR     68  58  70 SW3       30.09S
ASHTABULA      CLEAR     62  56  80 S7        30.10S
AKRON-CANTON   PTCLDY    67  56  67 S5        30.11S
WOOSTER        NOT AVBL
MANSFIELD      CLEAR     65  60  84 CALM      30.12R
YOUNGSTOWN     PTCLDY    65  56  72 S5        30.12R
$$

OHZ042-051>053-060>062-070>072-077>081-010500-
  SOUTHWEST OHIO

CITY           SKY/WX    TMP DP  RH WIND       PRES   REMARKS
CINC-COVINGTON CLEAR     69  60  73 CALM      30.10S
CINC-LUNKEN    PTCLDY    65  62  90 CALM      30.10R
HAMILTON       CLEAR     63  62  97 CALM      30.10S
DAYTON         NOT AVBL
WRIGHT-PAT AFB CLEAR     67  61  83 CALM      30.10S
DAYTON GENERAL MOCLDY    67  60  78 CALM      30.10S
WILMINGTON     CLOUDY    71  63  75 NW5       30.11S
$$

OHZ036-037-039>041-045>050-054>059-063>069-073>076-082>088-010500-
  CENTRAL AND SOUTHEAST OHIO

CITY           SKY/WX    TMP DP  RH WIND       PRES   REMARKS
COLUMBUS       CLEAR     69  60  73 CALM      30.09S
OSU AIRPORT    CLEAR     68  60  75 CALM      30.10S
BOLTON FIELD   NOT AVBL
RICKENBACK AFB NOT AVBL
NEWARK         CLEAR     62  60  93 CALM      30.10S
MARION         CLEAR     64  59  83 S5        30.11R
LANCASTER      CLEAR     62  59  90 CALM      30.11S
ZANESVILLE     CLEAR     65  62  90 CALM      30.11S
NEW PHILLY     CLEAR     61  60  97 CALM      30.12S
$$


USA.gov is the U.S. government's official web portal to all federal, state and local government web resources and services.